Tracking 20721 objects as of 1-Jun-2020
HD Live streaming from Space Station
objects crossing your sky now

FENGYUN 1C DEB

Track FENGYUN 1C DEB now!
10-day predictions


NORAD ID: 30656
Int'l Code: 1999-025APN
Perigee: 801.7 km
Apogee: 877.9 km
Inclination: 99.0 °
Period: 101.6 minutes
Semi major axis: 7210 km
RCS: 0.021 m2 (small)
Launch date: May 10, 1999
Source: People's Republic of China (PRC)
Launch site: Taiyaun Space Center, China (TSC)

Note: This is SATELLITE DEBRIS
aabbcc
Your satellite tracking list
Your tracking list is empty




NASA's NSSDC Master Catalog

Two Line Element Set (TLE):
1 30656U 99025APN 20150.93271644 +.00000614 +00000-0 +31868-3 0  9999
2 30656 098.9632 247.3570 0052831 155.2429 205.1298 14.17843981682902
Source of the keplerian elements: AFSPC